[[{"header":{"parameterUnit":"m.s-1","parameterCategory":1,"la1":30.2991,"la2":30.254,"lo1":-89.0895,"lo2":-89.0444,"dy":0.0017,"dx":0.0017,"nx":28,"ny":28,"refTime":"2025-07-14T03:00:00:Z","depth":0,"parameterNumber":2,"parameterNumberName":"U-component_of_WINDS"},"data":[0,0,0,0,0,0,0,0,0,0,0,0,0,0,0,0,0,0,0,0,0,0,0,0,0,0,0,0,0,0,0,0,0,0,0,0,0,0,0,0,0,0,0,0,0,0,0,0,0,0,0,0,0,0,0,0,0,0,1.1078,1.1077,0,1.1032,1.1031,1.1031,1.0953,1.0952,1.095,1.0949,1.0904,1.0904,1.0904,0,0,0,0,0,0,0,0,0,0,0,0,0,1.11,1.11,1.1078,1.1077,1.1077,1.1032,1.1031,1.1031,1.0953,1.0952,1.095,1.0948,1.0904,1.0904,1.0904,0,0,0,0,0,0,0,0,0,0,0,0,0,1.1076,1.11,1.1078,1.1032,1.1028,1.1032,1.1031,1.103,1.0954,1.0951,1.0949,1.0947,1.0904,1.0904,1.0904,1.0949,0,0,1.0905,1.0905,0,0,0,0,0,0,0,0,1.1078,1.1076,1.104,1.1036,1.1031,1.0996,1.1023,1.1003,1.0954,1.0982,1.0949,1.0946,1.0936,1.0934,1.093,1.0947,1.0945,1.0905,1.0905,1.0905,1.0905,0,0,0,0,0,0,0,1.108,1.1077,1.106,1.1039,1.1034,1.1015,1.1009,1.1019,1.0972,1.0979,1.0974,1.0969,1.0933,1.093,1.0928,1.0944,1.0905,1.0905,1.0905,1.0905,1.0998,1.1,0,0,0,0,0,0,1.1088,1.1079,1.1061,1.1058,1.1049,1.1017,1.101,1.1009,1.0972,1.0964,1.0971,1.0966,1.0931,1.0928,1.0926,1.0978,1.0905,1.0905,1.0905,1.0996,1.0999,1.1001,0,0,0,0,0,0,1.1088,1.1087,1.1063,1.1067,1.1063,1.1018,1.1018,1.101,1.1006,1.0965,1.0957,1.0976,1.0929,1.0926,1.0944,1.0976,1.0905,1.0906,1.0993,1.0997,1.1,1.1082,0,0,0,0,0,0,1.1089,1.1087,1.1104,1.1068,1.1063,1.1081,1.102,1.101,1.1006,1.0999,1.0968,1.096,1.0927,1.0944,1.0945,1.0975,1.0906,1.099,1.0995,1.0999,1.1076,1.1088,1.1098,0,0,0,0,0,1.109,1.1129,1.1105,1.1103,1.1082,1.1083,1.108,1.104,1.1009,1.1026,1.1,1.0961,1.0972,1.0947,1.0946,1.0977,1.0988,1.0993,1.0998,1.1071,1.1085,1.1097,0,0,0,0,0,0,1.117,1.1123,1.1096,1.1124,1.1108,1.107,1.109,1.1056,1.1049,1.1043,1.0994,1.0987,1.1013,1.0996,1.0969,1.102,1.0974,1.0979,1.103,1.1043,1.1053,1.1057,1.0906,0,0,0,0,0,1.119,1.1194,1.1154,1.1182,1.1175,1.1134,1.1133,1.1104,1.1086,1.1079,1.1054,1.1038,1.1038,1.1039,1.1036,1.1073,1.1066,1.1094,1.1104,1.1113,1.1119,1.1139,1.1151,1.1018,1.1018,1.1018,0,0,1.1233,1.1208,1.1214,1.1197,1.1182,1.1188,1.1129,1.1138,1.1143,1.108,1.1096,1.1078,1.1057,1.1085,1.1096,1.1072,1.1154,1.112,1.1127,1.1128,1.1146,1.1158,1.117,1.1022,1.1021,1.1021,0,0,1.1315,1.1295,1.1318,1.1303,1.128,1.1252,1.1258,1.1225,1.121,1.1225,1.1179,1.1184,1.1184,1.1172,1.1166,1.1244,1.1209,1.1244,1.1301,1.1321,1.1331,1.134,1.137,1.1381,1.125,1.125,1.125,0,1.1371,1.1379,1.1334,1.1346,1.1341,1.1284,1.1307,1.1295,1.1273,1.1271,1.1244,1.1244,1.1226,1.1251,1.1271,1.1267,1.1273,1.1248,1.1333,1.1342,1.135,1.1378,1.1389,1.1255,1.1254,1.1254,1.1253,0,1.145,1.1456,1.1477,1.1457,1.1454,1.1471,1.143,1.1433,1.1403,1.1379,1.1396,1.1372,1.1365,1.1368,1.1339,1.139,1.1376,1.1342,1.1296,1.1368,1.1393,1.1404,1.1261,1.1259,1.1258,1.1257,0,0,1.1582,1.1536,1.1545,1.1536,1.1506,1.151,1.1526,1.1518,1.1522,1.1508,1.1521,1.1523,1.1492,1.1485,1.1454,1.1471,1.1537,1.1435,1.1434,1.1457,1.1593,1.1621,1.1634,1.1513,1.1515,1.1516,1.1596,0,1.1659,1.1683,1.1643,1.1676,1.1682,1.1628,1.1642,1.1626,1.1604,1.1606,1.1581,1.1584,1.1541,1.1537,1.1551,1.1526,1.1564,1.152,1.1527,1.1527,1.1536,1.1647,1.1675,1.1752,1.1605,1.1607,1.1608,0,1.1752,1.1744,1.1778,1.1747,1.1748,1.1761,1.1752,1.1754,1.1735,1.1717,1.171,1.1674,1.1688,1.1642,1.1662,1.1633,1.1633,1.1621,1.1623,1.1624,1.1574,1.1653,1.1775,1.1787,1.1623,1.1622,1.1621,0,1.1848,1.1844,1.1865,1.1858,1.1822,1.1833,1.1819,1.1797,1.1796,1.1787,1.1786,1.1779,1.1776,1.1772,1.1736,1.1705,1.1761,1.1711,1.1749,1.175,1.1764,1.1765,1.1891,1.1761,1.1761,1.1761,1.1761,0,1.194,1.1963,1.1907,1.192,1.1945,1.1899,1.1926,1.1906,1.1888,1.1897,1.1849,1.1858,1.1808,1.1813,1.1784,1.1806,1.1805,1.1792,1.1785,1.1798,1.18,1.1799,1.1793,1.1764,1.1763,1.1763,1.1762,0,1.2051,1.2014,1.2033,1.1998,1.1989,1.201,1.198,1.1991,1.1965,1.1977,1.1977,1.1937,1.194,1.1902,1.1898,1.1879,1.1915,1.1897,1.1921,1.1917,1.1957,1.1954,1.2088,1.2105,1.1963,1.1965,1.1966,0,1.2114,1.213,1.2097,1.2099,1.2087,1.2091,1.2089,1.2045,1.2045,1.2025,1.2039,1.2037,1.2034,1.2041,1.2012,1.2009,1.1992,1.2039,1.1991,1.2004,1.1995,1.1996,1.1998,1.205,1.2052,1.2053,1.2054,0,1.2229,1.2209,1.2208,1.2201,1.22,1.2192,1.2181,1.2186,1.2137,1.214,1.2142,1.214,1.2135,1.2135,1.2126,1.2112,1.2077,1.2069,1.2078,1.2093,1.2107,1.2102,1.1951,1.2067,1.2066,1.2065,1.2064,1.2064,1.2319,1.2332,1.2311,1.2311,1.2298,1.2289,1.2298,1.2273,1.2274,1.2267,1.224,1.2248,1.2229,1.2213,1.2203,1.2208,1.2185,1.2198,1.2201,1.2205,1.2214,1.2105,1.2206,1.2206,1.2205,1.2205,1.2205,0,1.2433,1.2417,1.2417,1.2404,1.2405,1.2369,1.2355,1.2359,1.2366,1.2351,1.2349,1.2352,1.2352,1.2323,1.2319,1.233,1.2313,1.233,1.233,1.2328,1.2233,1.2227,1.2344,1.2344,1.2344,1.2344,1.2344,1.2344,1.2493,1.2514,1.2493,1.2507,1.249,1.2497,1.2492,1.2484,1.2473,1.2478,1.2478,1.2458,1.2438,1.2433,1.2432,1.2423,1.2426,1.2449,1.2435,1.2348,1.2335,1.2322,1.2316,1.2449,1.2449,1.253,1.2531,1.2531]},{"header":{"parameterUnit":"m.s-1","parameterCategory":1,"la1":30.2991,"la2":30.254,"lo1":-89.0895,"lo2":-89.0444,"dy":0.0017,"dx":0.0017,"nx":28,"ny":28,"refTime":"2025-07-14T03:00:00:Z","depth":0,"parameterNumber":3,"parameterNumberName":"V-component_of_WINDS"},"data":[0,0,0,0,0,0,0,0,0,0,0,0,0,0,0,0,0,0,0,0,0,0,0,0,0,0,0,0,0,0,0,0,0,0,0,0,0,0,0,0,0,0,0,0,0,0,0,0,0,0,0,0,0,0,0,0,0,0,-2.5974,-2.5974,0,-2.6011,-2.6011,-2.6012,-2.6013,-2.6013,-2.6012,-2.6012,-2.6048,-2.6049,-2.605,0,0,0,0,0,0,0,0,0,0,0,0,0,-2.5905,-2.5906,-2.5974,-2.5974,-2.5975,-2.6011,-2.6011,-2.6012,-2.6013,-2.6013,-2.6012,-2.6012,-2.6047,-2.6049,-2.6051,0,0,0,0,0,0,0,0,0,0,0,0,0,-2.5937,-2.5906,-2.5974,-2.598,-2.5981,-2.6011,-2.6011,-2.6012,-2.6014,-2.6013,-2.6012,-2.6012,-2.6047,-2.6049,-2.6051,-2.6076,0,0,-2.6057,-2.6058,0,0,0,0,0,0,0,0,-2.5935,-2.594,-2.5979,-2.598,-2.5981,-2.6007,-2.6,-2.6034,-2.6014,-2.6001,-2.6012,-2.6011,-2.6035,-2.6038,-2.6046,-2.6078,-2.608,-2.6057,-2.6058,-2.6059,-2.606,0,0,0,0,0,0,0,-2.5933,-2.5938,-2.5989,-2.5979,-2.5981,-2.5981,-2.5985,-2.6006,-2.6021,-2.6002,-2.6002,-2.6007,-2.6035,-2.6044,-2.6047,-2.608,-2.6057,-2.6059,-2.606,-2.6061,-2.6138,-2.6139,0,0,0,0,0,0,-2.593,-2.5936,-2.5987,-2.599,-2.5956,-2.5983,-2.5987,-2.5999,-2.6021,-2.6023,-2.6007,-2.6007,-2.6041,-2.6044,-2.6048,-2.6082,-2.6059,-2.6061,-2.6062,-2.6137,-2.6138,-2.6139,0,0,0,0,0,0,-2.5928,-2.5934,-2.5986,-2.5963,-2.597,-2.5985,-2.5998,-2.6,-2.6009,-2.6025,-2.6027,-2.6014,-2.604,-2.6045,-2.607,-2.6083,-2.6062,-2.6064,-2.6136,-2.6138,-2.6139,-2.6148,0,0,0,0,0,0,-2.5926,-2.5934,-2.5944,-2.5963,-2.5971,-2.6008,-2.5999,-2.6001,-2.6013,-2.6013,-2.6031,-2.6034,-2.604,-2.6067,-2.6072,-2.6085,-2.6066,-2.6135,-2.6137,-2.6138,-2.6146,-2.6149,-2.6151,0,0,0,0,0,-2.5924,-2.5943,-2.5944,-2.595,-2.5984,-2.6008,-2.6013,-2.602,-2.6014,-2.6024,-2.6035,-2.6033,-2.608,-2.607,-2.6075,-2.6089,-2.6135,-2.6136,-2.6138,-2.6145,-2.6149,-2.6151,0,0,0,0,0,0,-2.5923,-2.5946,-2.5947,-2.5974,-2.5989,-2.6008,-2.6021,-2.6023,-2.604,-2.6039,-2.6046,-2.6051,-2.6076,-2.6085,-2.6073,-2.6117,-2.6107,-2.611,-2.611,-2.6113,-2.6116,-2.6114,-2.6067,0,0,0,0,0,-2.5926,-2.5945,-2.5964,-2.5985,-2.5993,-2.6006,-2.6017,-2.6022,-2.6038,-2.6044,-2.6056,-2.6071,-2.609,-2.6102,-2.612,-2.6147,-2.6153,-2.616,-2.6162,-2.6164,-2.6167,-2.6185,-2.619,-2.6145,-2.6145,-2.6145,0,0,-2.5933,-2.5947,-2.5958,-2.5986,-2.5998,-2.6018,-2.6011,-2.6031,-2.6046,-2.6047,-2.6072,-2.6082,-2.6099,-2.6127,-2.6139,-2.6135,-2.6181,-2.6167,-2.6168,-2.617,-2.6188,-2.6192,-2.6196,-2.6147,-2.6146,-2.6146,0,0,-2.5954,-2.5967,-2.5988,-2.6001,-2.6021,-2.603,-2.6035,-2.6055,-2.6062,-2.6087,-2.6089,-2.6106,-2.6137,-2.6151,-2.6162,-2.6192,-2.6192,-2.6197,-2.6211,-2.6228,-2.6232,-2.6235,-2.6248,-2.6252,-2.62,-2.62,-2.62,0,-2.5959,-2.5989,-2.5998,-2.6019,-2.6032,-2.6035,-2.6057,-2.6069,-2.6093,-2.6102,-2.6097,-2.6138,-2.615,-2.6182,-2.619,-2.6197,-2.6205,-2.6195,-2.6231,-2.6234,-2.6237,-2.6249,-2.6254,-2.62,-2.62,-2.62,-2.62,0,-2.5996,-2.6016,-2.6031,-2.6056,-2.607,-2.6092,-2.6104,-2.6117,-2.6121,-2.6131,-2.6158,-2.6173,-2.6195,-2.6203,-2.6206,-2.6236,-2.6233,-2.6229,-2.622,-2.6242,-2.6254,-2.6258,-2.6201,-2.6201,-2.6201,-2.6201,0,0,-2.6017,-2.6049,-2.6054,-2.6067,-2.609,-2.6107,-2.6129,-2.6152,-2.6164,-2.6181,-2.6201,-2.6228,-2.6226,-2.6238,-2.6243,-2.6258,-2.6284,-2.6253,-2.6254,-2.626,-2.6321,-2.6325,-2.633,-2.6284,-2.6285,-2.6286,-2.632,0,-2.6043,-2.6083,-2.6093,-2.6127,-2.6148,-2.6152,-2.6172,-2.6189,-2.6199,-2.6218,-2.6228,-2.6249,-2.6243,-2.6251,-2.6266,-2.6278,-2.6297,-2.6275,-2.6304,-2.6305,-2.6301,-2.6336,-2.634,-2.6371,-2.6325,-2.6325,-2.6326,0,-2.6078,-2.6098,-2.6135,-2.6159,-2.6168,-2.6185,-2.6209,-2.6226,-2.6246,-2.6252,-2.6268,-2.6272,-2.6296,-2.6285,-2.6319,-2.6305,-2.6317,-2.6325,-2.6326,-2.633,-2.6318,-2.6343,-2.6381,-2.6387,-2.6333,-2.6332,-2.6332,0,-2.6092,-2.6128,-2.6156,-2.6167,-2.6194,-2.6207,-2.6219,-2.6238,-2.6252,-2.6272,-2.6282,-2.6304,-2.6317,-2.6334,-2.6344,-2.6335,-2.6379,-2.6368,-2.6386,-2.6386,-2.6395,-2.6395,-2.6438,-2.64,-2.64,-2.64,-2.64,0,-2.6121,-2.6144,-2.6164,-2.6181,-2.6208,-2.6219,-2.6245,-2.6257,-2.6274,-2.6294,-2.6299,-2.6317,-2.6329,-2.635,-2.6358,-2.6387,-2.6392,-2.6398,-2.64,-2.6399,-2.6398,-2.6408,-2.6407,-2.6402,-2.6401,-2.6401,-2.6401,0,-2.6141,-2.6155,-2.6186,-2.6211,-2.6218,-2.6237,-2.6258,-2.6275,-2.6286,-2.6312,-2.6318,-2.6335,-2.636,-2.6372,-2.6402,-2.6408,-2.6441,-2.6441,-2.6435,-2.6436,-2.6454,-2.6453,-2.6507,-2.6515,-2.647,-2.6471,-2.6471,0,-2.6159,-2.6177,-2.6205,-2.622,-2.6232,-2.6255,-2.6271,-2.6283,-2.6298,-2.6324,-2.6339,-2.6364,-2.6385,-2.6425,-2.644,-2.6464,-2.6466,-2.6483,-2.6469,-2.6468,-2.6469,-2.6468,-2.6471,-2.6486,-2.6486,-2.6486,-2.6487,0,-2.619,-2.6197,-2.6219,-2.6245,-2.6264,-2.6284,-2.6304,-2.6316,-2.6331,-2.6349,-2.6375,-2.6392,-2.6425,-2.645,-2.6476,-2.6488,-2.6491,-2.6491,-2.6497,-2.6496,-2.6493,-2.6497,-2.6444,-2.649,-2.6489,-2.6489,-2.6489,-2.6489,-2.6211,-2.6229,-2.6252,-2.6277,-2.6294,-2.6314,-2.6333,-2.6347,-2.637,-2.6398,-2.6404,-2.6433,-2.6454,-2.6489,-2.6503,-2.6526,-2.6522,-2.6529,-2.6532,-2.6534,-2.6536,-2.6488,-2.653,-2.653,-2.653,-2.653,-2.653,0,-2.6244,-2.626,-2.6283,-2.6313,-2.6333,-2.6335,-2.6358,-2.6375,-2.6401,-2.6421,-2.6443,-2.6475,-2.6501,-2.6519,-2.6546,-2.6561,-2.6563,-2.6567,-2.6567,-2.6571,-2.6537,-2.653,-2.6566,-2.6566,-2.6566,-2.6566,-2.6566,-2.6566,-2.6263,-2.6295,-2.6305,-2.6345,-2.6361,-2.639,-2.6404,-2.6422,-2.6439,-2.6475,-2.6497,-2.6509,-2.653,-2.6558,-2.6583,-2.6587,-2.6598,-2.6603,-2.6608,-2.6576,-2.6573,-2.6569,-2.6563,-2.6605,-2.6605,-2.664,-2.664,-2.6641]}]]